GOLDWX Weather Reports


time (UTC)temp
C
wind
direction
speed
KPH
gust
KPH
rain 1hr
cm
rain 24hr
cm
rain mn
cm
humidity
%
barometer
mb
20260506223503 26 358 9.7 35.4 0.00 0.00 0.00 19 1016.9
20260506222331 26 349 6.4 19.3 0.00 0.00 0.00 19 1017.0
20260506221329 26 37 17.7 29.0 0.00 0.00 0.00 19 1017.3
20260506220829 26 347 16.1 41.8 0.00 0.00 0.00 19 1017.3
20260506215827 25 10 9.7 40.2 0.00 0.00 0.00 20 1017.4
20260506215326 25 4 12.9 32.2 0.00 0.00 0.00 20 1017.5
20260506213823 24 354 17.7 24.1 0.00 0.00 0.00 22 1017.6
20260506212822 24 356 8.0 25.7 0.00 0.00 0.00 23 1017.6
20260506212321 23 2 6.4 22.5 0.00 0.00 0.00 22 1017.7
20260506211319 24 349 9.7 24.1 0.00 0.00 0.00 23 1017.7
20260506210819 24 359 16.1 30.6 0.00 0.00 0.00 23 1017.6
20260506205817 23 355 24.1 30.6 0.00 0.00 0.00 23 1017.7
20260506205316 23 0 27.4 27.4 0.00 0.00 0.00 24 1017.7
20260506204314 23 329 16.1 24.1 0.00 0.00 0.00 24 1017.8
20260506203814 23 314 8.0 24.1 0.00 0.00 0.00 24 1017.8
20260506202812 23 351 16.1 20.9 0.00 0.00 0.00 23 1017.9
20260506202313 23 351 19.3 25.7 0.00 0.00 0.00 23 1017.9
20260506201309 23 0 12.9 30.6 0.00 0.00 0.00 24 1018.0
20260506200809 23 34 6.4 22.5 0.00 0.00 0.00 23 1017.9
20260506195852 24 355 41.8 41.8 0.00 0.00 0.00 23 1017.9
20260506195751 24 351 8.0 16.1 0.00 0.00 0.00 23 1017.9
20260506194749 24 346 22.5 29.0 0.00 0.00 0.00 23 1017.9
20260506194249 23 1 19.3 27.4 0.00 0.00 0.00 24 1018.0
20260506193247 22 37 12.9 24.1 0.00 0.00 0.00 24 1018.2
20260506192746 22 32 22.5 22.5 0.00 0.00 0.00 23 1018.2
20260506191744 23 356 24.1 38.6 0.00 0.00 0.00 24 1018.1
20260506191244 22 0 22.5 25.7 0.00 0.00 0.00 24 1018.2
20260506190242 23 352 16.1 30.6 0.00 0.00 0.00 24 1018.1
20260506185741 22 4 29.0 29.0 0.00 0.00 0.00 23 1018.2
20260506184238 22 2 16.1 30.6 0.00 0.00 0.00 24 1018.4
20260506183237 22 357 22.5 25.7 0.00 0.00 0.00 24 1018.3
20260506182736 22 338 19.3 30.6 0.00 0.00 0.00 25 1018.3
20260506181734 22 0 17.7 25.7 0.00 0.00 0.00 25 1018.4
20260506181233 21 0 19.3 22.5 0.00 0.00 0.00 26 1018.5
20260506180232 21 358 22.5 27.4 0.00 0.00 0.00 27 1018.4
20260506175731 21 330 19.3 29.0 0.00 0.00 0.00 27 1018.4
20260506174729 21 11 16.1 33.8 0.00 0.00 0.00 27 1018.4
20260506174228 21 348 25.7 33.8 0.00 0.00 0.00 28 1018.2
20260506173226 21 341 16.1 29.0 0.00 0.00 0.00 29 1018.2
20260506172726 21 339 20.9 29.0 0.00 0.00 0.00 28 1018.1
20260506171724 20 316 16.1 33.8 0.00 0.00 0.00 29 1018.0
20260506171223 20 356 22.5 25.7 0.00 0.00 0.00 30 1018.2
20260506170221 20 335 17.7 29.0 0.00 0.00 0.00 30 1018.1
20260506165722 20 355 25.7 29.0 0.00 0.00 0.00 30 1018.1
20260506164218 19 358 19.3 27.4 0.00 0.00 0.00 30 1018.0
20260506163216 19 0 19.3 25.7 0.00 0.00 0.00 31 1017.9
20260506162716 19 0 27.4 27.4 0.00 0.00 0.00 32 1017.9
20260506161714 18 43 6.4 20.9 0.00 0.00 0.00 34 1017.9
20260506161213 18 22 16.1 17.7 0.00 0.00 0.00 33 1018.0
20260506160211 18 8 9.7 14.5 0.00 0.00 0.00 35 1017.9
20260506155711 18 354 1.6 11.3 0.00 0.00 0.00 37 1017.8
20260506154709 18 1 6.4 9.7 0.00 0.00 0.00 37 1017.8
20260506154209 18 47 6.4 12.9 0.00 0.00 0.00 37 1017.8
20260506153206 17 8 3.2 6.4 0.00 0.00 0.00 40 1017.8
20260506152707 17 32 1.6 12.9 0.00 0.00 0.00 40 1017.7
20260506151705 16 4 3.2 9.7 0.00 0.00 0.00 42 1017.7
20260506151203 16 346 1.6 11.3 0.00 0.00 0.00 43 1017.8
20260506150201 16 45 8.0 9.7 0.00 0.00 0.00 44 1017.7
20260506145701 15 3 3.2 8.0 0.00 0.00 0.00 47 1017.6
20260506144659 15 74 4.8 8.0 0.00 0.00 0.00 47 1017.5
20260506144158 14 76 3.2 9.7 0.00 0.00 0.00 48 1017.6
20260506143156 13 45 4.8 8.0 0.00 0.00 0.00 50 1017.5
20260506142656 13 43 8.0 9.7 0.00 0.00 0.00 51 1017.5
20260506141655 12 171 1.6 4.8 0.00 0.00 0.00 55 1017.3
20260506141156 12 138 3.2 4.8 0.00 0.00 0.00 57 1017.4
20260506140153 11 180 1.6 9.7 0.00 0.00 0.00 59 1017.4
20260506135651 11 180 8.0 9.7 0.00 0.00 0.00 60 1017.2
20260506134649 10 170 4.8 6.4 0.00 0.00 0.00 62 1017.3
20260506134148 10 180 6.4 9.7 0.00 0.00 0.00 63 1017.1
20260506133143 9 180 6.4 9.7 0.00 0.00 0.00 63 1017.1
20260506132643 8 180 9.7 9.7 0.00 0.00 0.00 63 1017.1
20260506131641 8 180 8.0 9.7 0.00 0.00 0.00 63 1017.1
20260506131140 8 178 6.4 9.7 0.00 0.00 0.00 63 1017.0
20260506130138 9 180 8.0 9.7 0.00 0.00 0.00 61 1016.9
20260506125638 9 180 11.3 11.3 0.00 0.00 0.00 59 1016.6
20260506124136 10 359 1.6 6.4 0.00 0.00 0.00 60 1016.4
20260506123132 9 135 4.8 9.7 0.00 0.00 0.00 61 1016.4
20260506122632 8 180 9.7 12.9 0.00 0.00 0.00 62 1016.1
20260506121630 8 180 12.9 12.9 0.00 0.00 0.00 62 1016.1
20260506121129 8 182 9.7 11.3 0.00 0.00 0.00 62 1016.0
20260506120127 8 179 9.7 11.3 0.00 0.00 0.00 62 1016.0
20260506115627 8 180 9.7 11.3 0.00 0.00 0.00 62 1015.9
20260506114625 8 180 9.7 11.3 0.00 0.00 0.00 62 1015.8
20260506114124 8 180 9.7 9.7 0.00 0.00 0.00 61 1015.8
20260506113122 8 180 8.0 8.0 0.00 0.00 0.00 61 1015.7
20260506112622 8 180 4.8 9.7 0.00 0.00 0.00 61 1015.7
20260506111620 9 181 8.0 9.7 0.00 0.00 0.00 60 1015.7
20260506111119 9 180 9.7 9.7 0.00 0.00 0.00 59 1015.7
20260506110117 9 180 6.4 9.7 0.00 0.00 0.00 59 1015.7
20260506105617 9 194 6.4 9.7 0.00 0.00 0.00 60 1015.6
20260506104615 8 180 8.0 14.5 0.00 0.00 0.00 62 1015.5
20260506104114 8 185 9.7 17.7 0.00 0.00 0.00 62 1015.6
20260506103112 9 178 8.0 11.3 0.00 0.00 0.00 61 1015.6
20260506102612 9 178 8.0 11.3 0.00 0.00 0.00 60 1015.4
20260506101610 10 180 6.4 11.3 0.00 0.00 0.00 60 1015.2
20260506101109 10 178 4.8 8.0 0.00 0.00 0.00 59 1015.1
20260506100107 10 180 8.0 8.0 0.00 0.00 0.00 59 1015.1
20260506095607 10 180 8.0 9.7 0.00 0.00 0.00 59 1015.1
20260506094605 10 180 8.0 11.3 0.00 0.00 0.00 59 1015.0
20260506094104 10 171 4.8 11.3 0.00 0.00 0.00 58 1015.1
20260506093104 10 180 9.7 11.3 0.00 0.00 0.00 58 1015.1
20260506092602 10 180 6.4 9.7 0.00 0.00 0.00 57 1015.1
20260506091600 11 180 1.6 6.4 0.00 0.00 0.00 54 1015.0
20260506091059 11 180 4.8 6.4 0.00 0.00 0.00 55 1014.9
20260506090057 11 180 6.4 8.0 0.00 0.00 0.00 55 1015.0
20260506085556 11 180 8.0 9.7 0.00 0.00 0.00 54 1014.9
20260506084555 11 180 8.0 9.7 0.00 0.00 0.00 53 1014.9
20260506084054 12 180 8.0 8.0 0.00 0.00 0.00 51 1014.8
20260506083052 12 180 3.2 3.2 0.00 0.00 0.00 45 1014.9
20260506082551 13 0 0.0 1.6 0.00 0.00 0.00 44 1014.8
20260506081550 13 315 3.2 6.4 0.00 0.00 0.00 43 1014.8
20260506081049 13 301 6.4 8.0 0.00 0.00 0.00 43 1014.8
20260506073042 13 357 14.5 19.3 0.00 0.00 0.00 43 1014.8
20260506072541 13 0 17.7 17.7 0.00 0.00 0.00 43 1014.9
20260506071540 13 0 8.0 9.7 0.00 0.00 0.00 42 1014.9
20260506071039 13 0 6.4 11.3 0.00 0.00 0.00 42 1014.9
20260506061528 12 316 4.8 11.3 0.00 0.00 0.00 41 1014.6
20260506061028 12 322 11.3 11.3 0.00 0.00 0.00 41 1014.5
20260506051017 11 206 4.8 11.3 0.00 0.00 0.00 43 1014.2
20260506044512 11 180 8.0 11.3 0.00 0.00 0.00 42 1013.9
20260506044012 12 180 9.7 12.9 0.00 0.00 0.00 41 1013.8
20260506043010 12 180 9.7 11.3 0.00 0.00 0.00 40 1013.7
20260506042509 12 181 6.4 9.7 0.00 0.00 0.00 39 1013.6
20260506041507 13 180 8.0 8.0 0.00 0.00 0.00 37 1013.4
20260506041007 13 179 4.8 4.8 0.00 0.00 0.00 36 1013.3
20260506040006 15 180 3.2 3.2 0.00 0.00 0.00 32 1013.2
20260506035504 15 309 3.2 3.2 0.00 0.00 0.00 31 1013.1
20260506034502 15 315 1.6 3.2 0.00 0.00 0.00 30 1012.8
20260506034002 15 315 3.2 3.2 0.00 0.00 0.00 31 1012.8
20260506032459 16 346 3.2 6.4 0.00 0.00 0.00 30 1012.5
20260506031457 16 357 4.8 8.0 0.00 0.00 0.00 30 1012.4
20260506030957 16 345 6.4 11.3 0.00 0.00 0.00 30 1012.3
20260506025452 16 340 6.4 12.9 0.00 0.00 0.00 29 1012.1
20260506024450 17 356 8.0 16.1 0.00 0.00 0.00 29 1011.9
20260506023950 17 350 11.3 16.1 0.00 0.00 0.00 29 1011.8
20260506022449 18 349 17.7 24.1 0.00 0.00 0.00 28 1011.6
20260506021445 18 340 12.9 22.5 0.00 0.00 0.00 28 1011.4
20260506020946 18 353 22.5 24.1 0.00 0.00 0.00 28 1011.4
20260506015943 18 342 16.1 27.4 0.00 0.00 0.00 27 1011.2
20260506015442 18 351 17.7 29.0 0.00 0.00 0.00 26 1011.1
20260506014439 19 332 25.7 25.7 0.00 0.00 0.00 26 1010.9
20260506013939 19 340 20.9 29.0 0.00 0.00 0.00 25 1010.8
20260506012937 20 346 14.5 20.9 0.00 0.00 0.00 22 1010.8
20260506012436 20 319 9.7 16.1 0.00 0.00 0.00 21 1010.8
20260506011434 20 357 17.7 19.3 0.00 0.00 0.00 21 1010.7
20260506010934 20 323 8.0 14.5 0.00 0.00 0.00 21 1010.7
20260506005932 20 40 9.7 19.3 0.00 0.00 0.00 20 1010.7
20260506005431 21 0 19.3 22.5 0.00 0.00 0.00 19 1010.6
20260506004429 21 357 8.0 17.7 0.00 0.00 0.00 20 1010.6
20260506003929 21 346 11.3 22.5 0.00 0.00 0.00 20 1010.5
20260506002927 22 344 11.3 14.5 0.00 0.00 0.00 20 1010.4
20260506002426 22 358 6.4 16.1 0.00 0.00 0.00 19 1010.4
20260506001424 23 331 12.9 22.5 0.00 0.00 0.00 20 1010.3
20260506000924 23 339 12.9 16.1 0.00 0.00 0.00 19 1010.3
20260505235922 23 288 9.7 14.5 0.00 0.00 0.00 19 1010.3
20260505235421 23 307 8.0 12.9 0.00 0.00 0.00 20 1010.2
20260505234419 22 274 12.9 12.9 0.00 0.00 0.00 21 1010.2
20260505233919 21 315 8.0 17.7 0.00 0.00 0.00 22 1010.3
20260505232917 21 358 14.5 16.1 0.00 0.00 0.00 21 1010.3
20260505232416 21 341 4.8 9.7 0.00 0.00 0.00 22 1010.4
20260505231414 20 225 4.8 8.0 0.00 0.00 0.00 21 1010.5
20260505230914 21 321 8.0 19.3 0.00 0.00 0.00 22 1010.4
20260505225410 21 318 9.7 19.3 0.00 0.00 0.00 22 1010.5